Voltar ao catálogo

USA 247

AtivoMilitarLEO
NORAD 39462·PAYLOAD·🇺🇸 United States

Lançado Dec 6, 2013 de Vandenberg Space Force Base

Loading…

Próximas Passagens (próximas 24 horas)

TLE

ObsoletoSource: Mike McCants

Época: Jun 23, 2026, 01:04 UTC

1 39462U 13072A   26174.04481285 0.00000000  00000-0  00000-0 0    02
2 39462 123.0231  43.2129 0002212 111.1136 248.7619 13.41432111    08

Acompanhe USA 247 em tempo real com AllMySat

Download on the App Store